Dati Storici

Data ora Umidita' aria (%) Temperatura aria (°C) Rad globale (W/m²) Gonioanemometro (°) Tacoanemometro (m/s) Pioggia (mm)
20-02-2019 22:10 97.9 % 4.975 13.119 313.123 0.37 0
20-02-2019 22:00 97.9 % 5.062 13.016 292.629 0.163 0
20-02-2019 21:50 97.9 % 5.099 13.246 301.534 0.359 0
20-02-2019 21:40 97.9 % 5.234 13.029 325.835 0.353 0
20-02-2019 21:30 97.9 % 5.254 12.978 292.024 0.442 0
20-02-2019 21:20 97.8 % 5.475 12.736 326.338 0.42 0
20-02-2019 21:10 97.9 % 5.743 13.349 1.114 0.34 0
20-02-2019 21:00 97.9 % 5.884 13.233 256.675 0.376 0
20-02-2019 20:50 97.8 % 5.718 13.208 249.021 0.591 0
20-02-2019 20:40 97.8 % 5.94 13.17 304.778 0.449 0
20-02-2019 20:30 97.8 % 5.968 12.876 280.615 0.366 0
20-02-2019 20:20 97.8 % 5.982 12.723 219.172 0.615 0
20-02-2019 20:10 97.8 % 6.148 12.892 254.96 0.47 0
20-02-2019 20:00 97.8 % 6.251 13.096 242.964 0.402 0
20-02-2019 19:50 97.8 % 6.284 12.917 230.56 0.681 0
20-02-2019 19:40 97.4 % 6.163 12.777 236.971 0.319 0
20-02-2019 19:30 96.3 % 6.255 12.789 301.398 0.221 0
20-02-2019 19:20 95.5 % 6.418 12.554 236.476 0.435 0
20-02-2019 19:10 93.9 % 6.602 12.823 257.259 0.167 0
20-02-2019 19:00 94.5 % 6.936 12.962 170.068 0.412 0

I dati sono presentati in modo automatico a scopo informativo. In seguito a verifica i dati possono subire modifiche o essere invalidati e non riportati negli archivi definitivi.